Page, AZ

7:13 PM MST on February 06, 2016 (GMT -0700)
Page Municipal

Weather History for KPGA - March, 2012

Change the Weather History Date:

Tuesday, March 13, 2012

  Actual Average Record
Temperature  
Mean Temperature 58 °F -  
Max Temperature 73 °F 58 °F 78 °F (2007)
Min Temperature 44 °F 36 °F 22 °F (1962)
Degree Days  
Heating Degree Days 6    
Growing Degree Days 8 (Base 50)    
Moisture  
Dew Point 7 °F    
Average Humidity 14    
Maximum Humidity 25    
Minimum Humidity 6    
Precipitation  
Precipitation 0.00 in - - ()
Sea Level Pressure  
Sea Level Pressure 29.88 in    
Wind  
Wind Speed 5 mph (SSW)    
Max Wind Speed 12 mph    
Max Gust Speed 21 mph    
Visibility 10 miles    
Events      
Averages and records for this station are not official NWS values.
T = Trace of Precipitation, MM = Missing Value Source: NWS Daily Summary

Daily Weather History Graph

Daily Weather History Graph

Search for Another Location

Airport or City:

Trip Planner

Search our weather history database for the weather conditions in past years. The results will help you decide how hot, cold, wet, or windy it might be!

Date:

Astronomy

Mar. 13, 2012 Rise Set
Actual Time 6:38 AM MST 6:31 PM MST
Civil Twilight 6:13 AM MST 6:57 PM MST
Nautical Twilight 5:42 AM MST 7:27 PM MST
Astronomical Twilight 5:12 AM MST 7:58 PM MST
Moon No Moon Rise 10:04 AM MST (3/13)
Length of Visible Light 12h 44m
Length of Day
11h 52m
Waning Gibbous, 64% of the Moon is Illuminated
Mar 13
Waning Gibbous
Mar 14
Last Quarter
Mar 22
New
Mar 30
First Quarter
Apr 6
Full

Hourly Weather History & Observations

Time (MST) Temp. Windchill Dew Point Humidity Pressure Visibility Wind Dir Wind Speed Gust Speed Precip Events Conditions
12:53 AM 55.0 °F - 6.1 °F 14% 29.91 in 10.0 mi South 6.9 mph - N/A   Clear
1:53 AM 53.1 °F - 6.1 °F 15% 29.91 in 10.0 mi SSW 8.1 mph - N/A   Clear
2:53 AM 52.0 °F - 7.0 °F 16% 29.89 in 10.0 mi South 5.8 mph - N/A   Clear
3:53 AM 52.0 °F - 6.1 °F 16% 29.88 in 10.0 mi South 6.9 mph - N/A   Clear
4:53 AM 46.9 °F - 12.0 °F 24% 29.90 in 10.0 mi Calm Calm - N/A   Clear
5:53 AM 44.1 °F 41.5 °F 9.0 °F 24% 29.92 in 2.0 mi SW 4.6 mph - N/A   Haze
6:06 AM 44.6 °F 42.2 °F 8.6 °F 23% 30.01 in 9.0 mi SE 4.6 mph - N/A   Clear
6:53 AM 45.0 °F - 10.9 °F 25% 29.94 in 10.0 mi Calm Calm - N/A   Clear
7:53 AM 46.9 °F - 10.0 °F 22% 29.96 in 10.0 mi Calm Calm - N/A   Clear
8:53 AM 53.1 °F - 14.0 °F 21% 29.96 in 10.0 mi Calm Calm - N/A   Clear
9:53 AM 55.9 °F - 15.1 °F 20% 29.95 in 10.0 mi Calm Calm - N/A   Clear
10:53 AM 61.0 °F - 14.0 °F 16% 29.93 in 10.0 mi North 4.6 mph - N/A   Clear
11:53 AM 64.9 °F - 12.0 °F 13% 29.89 in 10.0 mi NE 4.6 mph - N/A   Clear
12:53 PM 68.0 °F - 6.1 °F 9% 29.85 in 10.0 mi Variable 5.8 mph - N/A   Clear
1:53 PM 70.0 °F - 1.9 °F 7% 29.81 in 10.0 mi Variable 6.9 mph 20.7 mph N/A   Clear
2:53 PM 71.1 °F - 1.0 °F 6% 29.78 in 10.0 mi SSW 8.1 mph 17.3 mph N/A   Clear
3:53 PM 73.0 °F - 1.0 °F 6% 29.76 in 10.0 mi SSW 10.4 mph 18.4 mph N/A   Clear
4:53 PM 72.0 °F - 1.9 °F 6% 29.77 in 10.0 mi SSW 11.5 mph 19.6 mph N/A   Clear
5:53 PM 71.1 °F - 3.0 °F 7% 29.78 in 10.0 mi SSW 8.1 mph - N/A   Clear
6:53 PM 66.9 °F - 1.9 °F 8% 29.80 in 10.0 mi SSW 6.9 mph - N/A   Clear
7:53 PM 64.9 °F - 1.9 °F 8% 29.84 in 10.0 mi SW 5.8 mph - N/A   Clear
8:53 PM 60.1 °F - 3.0 °F 10% 29.86 in 10.0 mi SSW 5.8 mph - N/A   Clear
9:53 PM 57.9 °F - 3.0 °F 11% 29.88 in 10.0 mi SSW 8.1 mph - N/A   Clear
10:53 PM 57.0 °F - 3.9 °F 12% 29.88 in 10.0 mi SSW 8.1 mph - N/A   Clear
11:53 PM 54.0 °F - 5.0 °F 14% 29.88 in 10.0 mi South 3.5 mph - N/A   Clear